• In Romania
  • List of Countries
  • For 7 days
  • Water Temperature
  • Satellite Maps
  • Weather Map
  • Weather Widgets
  • user-avatar
    Login

    Hourly Weather São Paulo

    Today, 20 July, Friday

    Time Temperature Precipitation Wind Pressure Humidity
    00:00 +20°C° 0 mm 1 mps 702 mmHg 71%
    01:00 +19°C° 0 mm 1 mps 701 mmHg 72%
    02:00 +19°C° 0 mm 1 mps 701 mmHg 72%
    03:00 +18°C° 0 mm 2 mps 701 mmHg 72%
    04:00 +17°C° 0 mm 2 mps 700 mmHg 71%
    05:00 +17°C° 0 mm 2 mps 700 mmHg 71%
    06:00 +17°C° 0 mm 2 mps 700 mmHg 71%
    07:00 +19°C° 0 mm 2 mps 701 mmHg 65%
    08:00 +20°C° 0 mm 2 mps 701 mmHg 59%
    09:00 +23°C° 0 mm 2 mps 702 mmHg 54%
    10:00 +25°C° 0 mm 2 mps 702 mmHg 48%
    11:00 +27°C° 0 mm 2 mps 702 mmHg 43%
    12:00 +29°C° 0 mm 3 mps 702 mmHg 37%
    13:00 +29°C° 0 mm 3 mps 702 mmHg 37%
    14:00 +29°C° 0 mm 3 mps 701 mmHg 37%
    15:00 +29°C° 0 mm 3 mps 701 mmHg 37%
    16:00 +28°C° 0 mm 3 mps 700 mmHg 43%
    17:00 +26°C° 0 mm 2 mps 700 mmHg 49%
    18:00 +24°C° 0 mm 2 mps 700 mmHg 55%
    19:00 +23°C° 0 mm 1 mps 700 mmHg 57%
    20:00 +22°C° 0 mm 1 mps 700 mmHg 60%
    21:00 +21°C° 0 mm 1 mps 700 mmHg 62%
    22:00 +21°C° 0 mm 1 mps 700 mmHg 63%
    23:00 +21°C° 0 mm 1 mps 701 mmHg 64%

    Tomorrow, 21 July, Saturday

    Time Temperature Precipitation Wind Pressure Humidity
    00:00 +19°C° 0 mm 2 mps 701 mmHg 64%
    01:00 +19°C° 0 mm 2 mps 701 mmHg 65%
    02:00 +19°C° 0 mm 2 mps 700 mmHg 65%
    03:00 +19°C° 0 mm 2 mps 700 mmHg 65%
    04:00 +18°C° 0 mm 2 mps 700 mmHg 65%
    05:00 +18°C° 0 mm 2 mps 700 mmHg 65%
    06:00 +18°C° 0 mm 2 mps 700 mmHg 65%
    07:00 +19°C° 0 mm 2 mps 701 mmHg 61%
    08:00 +21°C° 0 mm 2 mps 702 mmHg 56%
    09:00 +24°C° 0 mm 2 mps 703 mmHg 51%
    10:00 +25°C° 0 mm 2 mps 703 mmHg 47%
    11:00 +27°C° 0 mm 2 mps 703 mmHg 43%
    12:00 +28°C° 0 mm 2 mps 704 mmHg 39%
    13:00 +27°C° 0 mm 3 mps 703 mmHg 43%
    14:00 +27°C° 0 mm 3 mps 703 mmHg 48%
    15:00 +26°C° 0 mm 3 mps 702 mmHg 53%
    16:00 +24°C° 0 mm 3 mps 702 mmHg 62%
    17:00 +21°C° 0 mm 3 mps 702 mmHg 72%
    18:00 +19°C° 0 mm 3 mps 701 mmHg 81%
    19:00 +19°C° 0 mm 3 mps 702 mmHg 83%
    20:00 +18°C° 0 mm 3 mps 702 mmHg 85%
    21:00 +18°C° 0 mm 3 mps 703 mmHg 87%
    22:00 +18°C° 0.1 mm 3 mps 703 mmHg 87%
    23:00 +18°C° 0.1 mm 3 mps 703 mmHg 87%

    Day after tomorrow, 22 July, Sunday

    Time Temperature Precipitation Wind Pressure Humidity
    00:00 +17°C° 0.1 mm 3 mps 703 mmHg 87%
    01:00 +17°C° 0.1 mm 3 mps 703 mmHg 87%
    02:00 +17°C° 0.1 mm 3 mps 703 mmHg 88%
    03:00 +17°C° 0.1 mm 3 mps 702 mmHg 88%
    04:00 +17°C° 0.1 mm 3 mps 702 mmHg 88%
    05:00 +17°C° 0.1 mm 3 mps 702 mmHg 88%
    06:00 +17°C° 0.1 mm 3 mps 703 mmHg 88%
    07:00 +18°C° 0 mm 3 mps 703 mmHg 85%
    08:00 +18°C° 0 mm 3 mps 704 mmHg 83%
    09:00 +19°C° 0 mm 3 mps 704 mmHg 80%
    10:00 +20°C° 0 mm 3 mps 705 mmHg 76%
    11:00 +21°C° 0 mm 3 mps 705 mmHg 71%
    12:00 +22°C° 0 mm 3 mps 705 mmHg 67%
    13:00 +22°C° 0 mm 3 mps 704 mmHg 67%
    14:00 +22°C° 0 mm 3 mps 704 mmHg 66%
    15:00 +22°C° 0 mm 3 mps 703 mmHg 66%
    16:00 +21°C° 0 mm 3 mps 703 mmHg 72%
    17:00 +20°C° 0 mm 3 mps 703 mmHg 77%
    18:00 +19°C° 0 mm 3 mps 703 mmHg 83%
    19:00 +18°C° 0 mm 2 mps 703 mmHg 85%
    20:00 +18°C° 0 mm 2 mps 704 mmHg 87%
    21:00 +18°C° 0 mm 2 mps 704 mmHg 90%
    22:00 +17°C° 0 mm 2 mps 704 mmHg 91%
    23:00 +17°C° 0 mm 2 mps 704 mmHg 92%

    23 July, Monday

    Time Temperature Precipitation Wind Pressure Humidity
    00:00 +18°C° 0 mm 1 mps 704 mmHg 93%
    01:00 +18°C° 0 mm 1 mps 704 mmHg 93%
    02:00 +16°C° 0 mm 1 mps 703 mmHg 92%
    03:00 +16°C° 0 mm 1 mps 703 mmHg 92%
    04:00 +16°C° 0 mm 1 mps 703 mmHg 91%
    05:00 +16°C° 0 mm 1 mps 703 mmHg 89%
    06:00 +16°C° 0 mm 1 mps 703 mmHg 87%
    07:00 +18°C° 0 mm 1 mps 704 mmHg 80%
    08:00 +19°C° 0 mm 1 mps 704 mmHg 72%
    09:00 +21°C° 0 mm 1 mps 705 mmHg 64%
    10:00 +23°C° 0 mm 1 mps 705 mmHg 56%
    11:00 +25°C° 0 mm 1 mps 705 mmHg 48%
    12:00 +27°C° 0 mm 1 mps 705 mmHg 41%
    13:00 +27°C° 0 mm 1 mps 705 mmHg 40%
    14:00 +27°C° 0 mm 1 mps 704 mmHg 40%
    15:00 +27°C° 0 mm 1 mps 703 mmHg 39%
    16:00 +25°C° 0 mm 1 mps 703 mmHg 46%
    17:00 +24°C° 0 mm 1 mps 703 mmHg 53%
    18:00 +22°C° 0 mm 1 mps 703 mmHg 59%
    19:00 +21°C° 0 mm 1 mps 703 mmHg 63%
    20:00 +21°C° 0 mm 1 mps 703 mmHg 66%
    21:00 +20°C° 0 mm 1 mps 704 mmHg 70%
    22:00 +20°C° 0 mm 1 mps 704 mmHg 71%
    23:00 +19°C° 0 mm 1 mps 704 mmHg 71%

    24 July, Tuesday

    Time Temperature Precipitation Wind Pressure Humidity
    00:00 +19°C° 0 mm 1 mps 704 mmHg 72%
    01:00 +19°C° 0 mm 1 mps 703 mmHg 72%
    02:00 +18°C° 0 mm 1 mps 703 mmHg 72%
    03:00 +18°C° 0 mm 1 mps 703 mmHg 71%
    04:00 +18°C° 0 mm 1 mps 703 mmHg 73%
    05:00 +18°C° 0 mm 1 mps 704 mmHg 75%
    06:00 +16°C° 0 mm 2 mps 704 mmHg 76%
    07:00 +17°C° 0 mm 2 mps 704 mmHg 77%
    08:00 +18°C° 0 mm 2 mps 705 mmHg 79%
    09:00 +18°C° 0 mm 3 mps 706 mmHg 80%
    10:00 +19°C° 0 mm 3 mps 706 mmHg 78%
    11:00 +20°C° 0 mm 3 mps 706 mmHg 76%
    12:00 +20°C° 0 mm 3 mps 706 mmHg 74%
    13:00 +20°C° 0 mm 3 mps 705 mmHg 75%
    14:00 +20°C° 0 mm 3 mps 705 mmHg 76%
    15:00 +20°C° 0 mm 4 mps 704 mmHg 77%
    16:00 +19°C° 0.1 mm 3 mps 705 mmHg 80%
    17:00 +18°C° 0.1 mm 3 mps 705 mmHg 83%
    18:00 +18°C° 0.1 mm 3 mps 705 mmHg 85%
    19:00 +17°C° 0.1 mm 3 mps 705 mmHg 86%
    20:00 +17°C° 0.1 mm 3 mps 706 mmHg 87%
    21:00 +17°C° 0.1 mm 3 mps 706 mmHg 89%
    22:00 +17°C° 0 mm 2 mps 706 mmHg 89%
    23:00 +17°C° 0 mm 2 mps 706 mmHg 90%

    25 July, Wednesday

    Time Temperature Precipitation Wind Pressure Humidity
    00:00 +17°C° 0 mm 2 mps 706 mmHg 90%
    01:00 +17°C° 0 mm 2 mps 705 mmHg 90%
    02:00 +17°C° 0 mm 2 mps 705 mmHg 89%
    03:00 +17°C° 0 mm 2 mps 705 mmHg 89%
    04:00 +17°C° 0 mm 2 mps 705 mmHg 89%
    05:00 +17°C° 0 mm 2 mps 705 mmHg 89%
    06:00 +17°C° 0 mm 2 mps 705 mmHg 89%
    07:00 +17°C° 0 mm 2 mps 705 mmHg 87%
    08:00 +17°C° 0 mm 2 mps 706 mmHg 85%
    09:00 +18°C° 0 mm 2 mps 706 mmHg 83%
    10:00 +19°C° 0.1 mm 2 mps 706 mmHg 79%
    11:00 +19°C° 0.1 mm 2 mps 706 mmHg 76%
    12:00 +20°C° 0.1 mm 2 mps 705 mmHg 72%
    13:00 +20°C° 0.2 mm 2 mps 705 mmHg 71%
    14:00 +21°C° 0.2 mm 2 mps 704 mmHg 70%
    15:00 +21°C° 0.2 mm 2 mps 704 mmHg 69%
    16:00 +20°C° 0.2 mm 2 mps 704 mmHg 75%
    17:00 +19°C° 0.2 mm 2 mps 704 mmHg 80%
    18:00 +18°C° 0.2 mm 2 mps 704 mmHg 86%
    19:00 +17°C° 0 mm 2 mps 704 mmHg 87%
    20:00 +17°C° 0 mm 2 mps 704 mmHg 89%
    21:00 +16°C° 0 mm 2 mps 705 mmHg 90%
    22:00 +16°C° 0 mm 2 mps 704 mmHg 91%
    23:00 +16°C° 0 mm 1 mps 704 mmHg 91%
    Show more